FW0220 Weather Reports


time (UTC)temp
C
wind
direction
speed
KPH
gust
KPH
rain 1hr
cm
rain 24hr
cm
rain mn
cm
humidity
%
barometer
mb
20260506233311 9 10 4.8 12.9 0.00 0.97 0.97 89 1015.4
20260506232808 9 5 4.8 14.5 0.00 0.97 0.97 89 1015.4
20260506232309 9 13 4.8 14.5 0.00 0.97 0.97 89 1015.4
20260506231807 9 9 4.8 17.7 0.00 0.97 0.97 89 1015.4
20260506231308 9 11 6.4 20.9 0.00 0.97 0.97 89 1015.4
20260506230808 9 30 8.0 20.9 0.00 0.97 0.97 89 1015.2
20260506230308 9 5 8.0 19.3 0.00 0.97 0.97 89 1015.2
20260506225806 9 21 6.4 14.5 0.00 0.97 0.97 90 1015.1
20260506225307 9 19 6.4 12.9 0.00 0.97 0.97 90 1015.0
20260506224806 9 19 6.4 12.9 0.00 0.97 0.97 90 1014.9
20260506224541 9 11 6.4 17.7 0.00 0.97 0.97 90 1014.7
20260506223809 9 14 8.0 17.7 0.00 0.97 0.97 91 1014.6
20260506223309 9 21 6.4 16.1 0.00 0.97 0.97 91 1014.6
20260506222809 9 320 6.4 16.1 0.00 0.97 0.97 91 1014.5
20260506222307 9 0 6.4 14.5 0.00 0.97 0.97 92 1014.5
20260506221808 9 348 8.0 22.5 0.03 0.97 0.97 92 1014.4
20260506221306 10 28 9.7 22.5 0.03 0.97 0.97 92 1014.2
20260506220807 10 24 8.0 19.3 0.08 0.97 0.97 91 1014.0
20260506220308 10 38 9.7 19.3 0.08 0.97 0.97 91 1014.0
20260506215808 10 30 11.3 22.5 0.10 0.97 0.97 91 1013.8
20260506215309 10 12 11.3 24.1 0.10 0.97 0.97 91 1013.6
20260506214806 10 15 11.3 24.1 0.10 0.97 0.97 91 1013.6
20260506214538 10 350 11.3 22.5 0.13 0.97 0.97 92 1013.5
20260506213806 10 30 11.3 20.9 0.13 0.97 0.97 92 1013.3
20260506213307 10 336 11.3 24.1 0.13 0.97 0.97 92 1013.3
20260506212806 10 27 9.7 24.1 0.13 0.97 0.97 92 1013.2
20260506212539 10 14 9.7 24.1 0.13 0.97 0.97 91 1013.0
20260506211808 10 22 12.9 25.7 0.10 0.94 0.94 92 1012.8
20260506211307 10 9 14.5 29.0 0.10 0.94 0.94 91 1012.6
20260506211039 10 32 12.9 29.0 0.05 0.89 0.91 91 1012.4
20260506210306 11 5 12.9 25.7 0.05 0.89 0.89 91 1012.3
20260506205807 11 24 12.9 25.7 0.03 0.86 0.86 91 1012.2
20260506205308 11 29 12.9 25.7 0.03 0.86 0.86 91 1012.0
20260506204806 11 28 12.9 25.7 0.03 0.86 0.86 91 1012.1
20260506204308 11 20 11.3 22.5 0.00 0.84 0.84 90 1012.0
20260506203806 12 5 11.3 27.4 0.00 0.84 0.84 89 1011.7
20260506203539 12 5 12.9 27.4 0.00 0.84 0.84 87 1011.7
20260506202809 13 9 9.7 25.7 0.00 0.84 0.84 84 1011.6
20260506202307 15 38 4.8 24.1 0.00 0.84 0.84 82 1011.5
20260506201808 16 224 3.2 11.3 0.00 0.84 0.84 88 1011.1
20260506201304 16 210 1.6 11.3 0.00 0.84 0.84 88 1011.3
20260506200800 16 227 1.6 9.7 0.00 0.84 0.84 88 1011.3
20260506200301 16 259 1.6 8.0 0.00 0.84 0.84 88 1011.4
20260506195801 16 257 3.2 8.0 0.00 0.84 0.84 88 1011.4
20260506195301 16 257 3.2 8.0 0.00 0.84 0.84 88 1011.4
20260506194801 16 258 3.2 9.7 0.00 0.84 0.84 88 1011.5
20260506194303 16 240 3.2 9.7 0.00 0.84 0.84 88 1011.5
20260506194031 16 238 1.6 8.0 0.00 0.84 0.84 89 1011.5
20260506193531 16 238 1.6 9.7 0.00 0.84 0.84 88 1011.6
20260506192800 16 223 3.2 11.3 0.00 0.84 0.84 88 1011.7
20260506192301 16 229 3.2 11.3 0.00 0.84 0.84 88 1011.6
20260506191801 16 209 3.2 11.3 0.00 0.84 0.84 88 1011.6
20260506191300 16 213 3.2 11.3 0.00 0.84 0.84 89 1011.6
20260506191028 16 215 4.8 9.7 0.00 0.84 0.84 88 1011.6
20260506190531 16 188 4.8 16.1 0.00 0.84 0.84 88 1011.5
20260506185756 16 205 4.8 16.1 0.00 0.84 0.84 89 1011.5
20260506185258 16 207 4.8 16.1 0.00 0.84 0.84 88 1011.6
20260506185030 16 198 4.8 14.5 0.00 0.84 0.84 89 1011.7
20260506184258 16 229 4.8 11.3 0.00 0.84 0.84 89 1011.8
20260506183754 16 202 6.4 17.7 0.00 0.84 0.84 89 1011.7
20260506183255 15 226 4.8 17.7 0.00 0.84 0.84 89 1011.8
20260506182757 15 186 4.8 12.9 0.00 0.84 0.84 90 1011.8
20260506182254 15 185 3.2 11.3 0.00 0.84 0.84 90 1011.8
20260506181754 15 183 3.2 9.7 0.00 0.84 0.84 90 1011.8
20260506181255 15 183 4.8 11.3 0.03 0.84 0.84 90 1011.9
20260506180755 15 187 4.8 12.9 0.03 0.84 0.84 90 1011.8
20260506180255 15 170 8.0 14.5 0.05 0.84 0.84 90 1011.8
20260506175755 15 186 9.7 14.5 0.08 0.84 0.84 90 1011.8
20260506175255 15 192 9.7 16.1 0.08 0.84 0.84 91 1011.9
20260506174754 15 192 9.7 16.1 0.10 0.84 0.84 91 1011.8
20260506174252 15 178 9.7 16.1 0.10 0.84 0.84 91 1011.9
20260506173753 15 192 9.7 16.1 0.10 0.84 0.84 91 1011.8
20260506173526 15 182 6.4 16.1 0.13 0.84 0.84 91 1012.0
20260506172753 15 199 4.8 11.3 0.13 0.84 0.84 91 1012.1
20260506172252 15 202 4.8 11.3 0.13 0.84 0.84 91 1012.1
20260506172024 15 207 4.8 9.7 0.15 0.84 0.84 91 1012.0
20260506171254 15 209 4.8 14.5 0.13 0.81 0.81 90 1012.1
20260506170753 15 214 4.8 14.5 0.13 0.81 0.81 90 1012.2
20260506170524 15 194 3.2 11.3 0.10 0.79 0.79 90 1012.3
20260506170417 15 198 3.2 11.3 0.08 0.76 0.79 90 1012.3
20260506165523 15 192 3.2 11.3 0.10 0.76 0.76 92 1012.3
20260506164750 15 194 3.2 11.3 0.08 0.74 0.74 90 1012.2
20260506164252 15 194 3.2 11.3 0.10 0.74 0.74 90 1012.2
20260506163749 15 192 3.2 11.3 0.13 0.74 0.74 89 1012.2
20260506163251 15 237 3.2 14.5 0.13 0.71 0.71 90 1012.3
20260506162748 15 238 1.6 14.5 0.18 0.71 0.71 89 1012.3
20260506162246 15 232 1.6 9.7 0.20 0.71 0.71 89 1012.2
20260506161748 15 174 3.2 16.1 0.18 0.69 0.69 89 1012.1
20260506161247 15 170 6.4 17.7 0.20 0.69 0.69 89 1012.2
20260506160744 15 211 8.0 19.3 0.23 0.69 0.69 89 1012.2
20260506160513 15 189 9.7 19.3 0.23 0.69 0.69 89 1012.1
20260506155745 15 176 9.7 16.1 0.25 0.69 0.69 90 1012.2
20260506155240 15 165 9.7 19.3 0.23 0.66 0.66 90 1012.3
20260506154741 15 182 9.7 19.3 0.23 0.66 0.66 89 1012.3
20260506154242 15 183 6.4 16.1 0.23 0.64 0.64 89 1012.4
20260506153741 15 187 4.8 12.9 0.23 0.61 0.61 89 1012.5
20260506153240 15 263 3.2 12.9 0.20 0.58 0.58 89 1012.6
20260506152732 15 201 3.2 12.9 0.18 0.53 0.53 89 1012.6
20260506152233 15 202 6.4 16.1 0.15 0.51 0.51 89 1012.7
20260506151730 15 212 9.7 17.7 0.15 0.51 0.51 89 1012.7
20260506151232 15 192 11.3 20.9 0.15 0.48 0.48 89 1012.6
20260506150729 15 175 11.3 20.9 0.13 0.46 0.48 89 1012.5
20260506150230 15 178 11.3 19.3 0.15 0.46 0.46 89 1012.4
20260506145728 15 192 12.9 22.5 0.15 0.43 0.43 89 1012.5
20260506145231 15 181 14.5 22.5 0.15 0.43 0.43 88 1012.4
20260506144729 15 195 12.9 22.5 0.18 0.43 0.43 88 1012.1
20260506144229 15 178 12.9 20.9 0.18 0.41 0.41 88 1012.3
20260506143730 15 184 12.9 22.5 0.18 0.38 0.38 88 1012.3
20260506143224 15 172 12.9 25.7 0.15 0.36 0.38 88 1012.4
20260506142722 15 196 12.9 25.7 0.18 0.36 0.36 88 1012.5
20260506142224 15 171 11.3 17.7 0.18 0.36 0.36 89 1012.5
20260506141723 15 170 11.3 17.7 0.20 0.36 0.36 88 1012.5
20260506141222 15 167 9.7 17.7 0.20 0.33 0.36 89 1012.3
20260506140723 15 180 9.7 17.7 0.23 0.33 0.33 88 1012.4
20260506140224 15 159 9.7 14.5 0.23 0.30 0.30 88 1012.3
20260506135955 15 178 11.3 19.3 0.20 0.28 0.30 88 1012.5
20260506135455 15 176 11.3 20.9 0.23 0.28 0.28 87 1012.5
20260506134724 15 178 11.3 20.9 0.23 0.25 0.25 87 1012.7
20260506134501 15 201 9.7 19.3 0.20 0.20 0.23 86 1012.8
20260506134224 15 171 9.7 19.3 0.23 0.23 0.23 87 1012.8
20260506133851 15 193 9.7 17.7 0.20 0.20 0.20 86 1013.0
20260506132731 15 194 11.3 20.9 0.18 0.18 0.18 84 1013.0
20260506132725 15 221 9.7 20.9 0.18 0.18 0.18 85 1013.0
20260506131723 15 171 9.7 24.1 0.15 0.15 0.15 84 1013.1
20260506131222 15 165 8.0 24.1 0.13 0.13 0.13 83 1013.1
20260506130725 15 188 6.4 19.3 0.10 0.10 0.10 82 1013.3
20260506130222 16 106 6.4 19.3 0.08 0.08 0.10 81 1013.4
20260506125721 16 200 6.4 16.1 0.05 0.05 0.08 80 1013.4
20260506125222 16 178 8.0 24.1 0.05 0.05 0.05 78 1013.3
20260506124714 16 172 11.3 24.1 0.03 0.03 0.03 77 1013.2
20260506124216 16 181 11.3 20.9 0.00 0.00 0.03 76 1013.1
20260506123715 16 212 11.3 20.9 0.00 0.00 0.00 74 1013.1
20260506123216 16 165 12.9 20.9 0.00 0.00 0.00 73 1012.8
20260506122715 17 187 12.9 20.9 0.00 0.00 0.00 71 1012.8
20260506122214 17 182 12.9 22.5 0.00 0.00 0.00 70 1012.6
20260506121714 17 191 12.9 22.5 0.00 0.00 0.00 68 1012.5
20260506121214 17 184 11.3 20.9 0.00 0.00 0.00 68 1012.5
20260506120714 17 195 11.3 24.1 0.00 0.00 0.00 67 1012.7
20260506120214 17 176 9.7 24.1 0.00 0.00 0.00 67 1012.6
20260506115714 17 235 8.0 17.7 0.00 0.00 0.00 65 1012.8
20260506115216 17 197 9.7 17.7 0.00 0.00 0.00 65 1012.8
20260506115212 17 223 8.0 17.7 0.00 0.00 0.00 66 1012.8
20260506114211 17 171 8.0 17.7 0.00 0.00 0.00 64 1012.7
20260506113710 17 180 6.4 12.9 0.00 0.00 0.00 66 1012.7
20260506113213 17 178 4.8 12.9 0.00 0.00 0.00 66 1012.7
20260506112942 17 182 4.8 9.7 0.00 0.00 0.00 65 1012.7
20260506112209 17 182 4.8 11.3 0.00 0.00 0.00 64 1012.7
20260506111707 17 181 4.8 11.3 0.00 0.00 0.00 62 1012.6
20260506111208 17 181 4.8 11.3 0.00 0.00 0.00 63 1012.6
20260506110705 17 181 3.2 11.3 0.00 0.00 0.00 63 1012.4
20260506110208 18 205 1.6 9.7 0.00 0.00 0.00 62 1012.5
20260506105703 18 217 1.6 6.4 0.00 0.00 0.00 60 1012.6
20260506105204 17 272 1.6 4.8 0.00 0.00 0.00 60 1012.6
20260506104702 17 186 3.2 8.0 0.00 0.00 0.00 60 1012.4
20260506104159 18 186 3.2 8.0 0.00 0.00 0.00 60 1012.3
20260506103657 17 186 3.2 9.7 0.00 0.00 0.00 59 1012.3
20260506103158 17 186 4.8 9.7 0.00 0.00 0.00 60 1012.1
20260506102922 17 186 4.8 12.9 0.00 0.00 0.00 60 1012.0
20260506102421 17 186 6.4 12.9 0.00 0.00 0.00 59 1012.0
20260506101653 18 186 4.8 9.7 0.00 0.00 0.00 60 1012.0
20260506101153 18 186 4.8 11.3 0.00 0.00 0.00 58 1012.2
20260506100653 18 186 6.4 11.3 0.00 0.00 0.00 58 1012.1
20260506100151 18 186 6.4 11.3 0.00 0.00 0.00 58 1012.0
20260506095649 18 185 4.8 11.3 0.00 0.00 0.00 58 1011.9
20260506095150 18 184 6.4 11.3 0.00 0.00 0.00 57 1012.1
20260506094650 18 184 6.4 12.9 0.00 0.00 0.00 57 1012.2
20260506094422 18 180 6.4 12.9 0.00 0.00 0.00 56 1012.2
20260506093650 18 179 6.4 11.3 0.00 0.00 0.00 56 1012.2
20260506093148 18 177 6.4 11.3 0.00 0.00 0.00 57 1012.2
20260506092647 18 177 6.4 11.3 0.00 0.00 0.00 56 1012.2
20260506092418 18 172 6.4 9.7 0.00 0.00 0.00 57 1012.2
20260506091646 18 172 6.4 11.3 0.00 0.00 0.00 56 1012.1
20260506091147 17 171 6.4 12.9 0.00 0.00 0.00 56 1012.2
20260506090648 17 171 4.8 12.9 0.00 0.00 0.00 57 1012.2
20260506090147 17 167 4.8 8.0 0.00 0.00 0.00 58 1012.2
20260506085918 17 167 4.8 8.0 0.00 0.00 0.00 58 1012.2
20260506085807 17 167 3.2 9.7 0.00 0.00 0.00 57 1012.3
20260506084648 17 167 3.2 9.7 0.00 0.00 0.00 56 1012.4
20260506084147 17 167 3.2 6.4 0.00 0.00 0.00 56 1012.4
20260506083648 17 167 3.2 6.4 0.00 0.00 0.00 55 1012.3
20260506083147 17 167 3.2 6.4 0.00 0.00 0.00 55 1012.5
20260506082644 18 167 3.2 8.0 0.00 0.00 0.00 55 1012.5
20260506082145 18 167 3.2 8.0 0.00 0.00 0.00 53 1012.5
20260506081645 18 167 3.2 8.0 0.00 0.00 0.00 55 1012.3
20260506081418 18 167 3.2 8.0 0.00 0.00 0.00 53 1012.4
20260506080645 18 167 4.8 9.7 0.00 0.00 0.00 54 1012.4
20260506080144 18 167 6.4 9.7 0.00 0.00 0.00 55 1012.3
20260506073142 18 183 6.4 11.3 0.00 0.00 0.00 53 1012.4
20260506072640 18 183 6.4 11.3 0.00 0.00 0.00 52 1012.4
20260506072410 18 182 4.8 11.3 0.00 0.00 0.00 51 1012.5
20260506071639 18 182 4.8 11.3 0.00 0.00 0.00 52 1012.5
20260506071138 18 196 3.2 9.7 0.00 0.00 0.00 50 1012.6
20260506070638 18 188 3.2 11.3 0.00 0.00 0.00 50 1012.6
20260506070134 18 187 4.8 11.3 0.00 0.00 0.00 50 1012.6
20260506062132 18 184 3.2 9.7 0.00 0.00 0.00 49 1012.9
20260506061632 18 181 3.2 11.3 0.00 0.00 0.00 49 1012.9
20260506061404 18 193 4.8 14.5 0.00 0.00 0.00 48 1012.9
20260506060630 18 187 4.8 14.5 0.00 0.00 0.00 49 1012.9
20260506060130 18 184 3.2 11.3 0.00 0.00 0.00 49 1012.9
20260506050620 18 186 4.8 11.3 0.00 0.00 0.00 52 1013.3
20260506050117 18 187 6.4 9.7 0.00 0.00 0.00 52 1013.4
20260506045117 17 185 6.4 12.9 0.00 0.00 0.00 56 1013.3
20260506044616 17 186 4.8 12.9 0.00 0.00 0.00 56 1013.3
20260506044115 17 188 3.2 11.3 0.00 0.00 0.00 58 1013.3
20260506043616 17 200 1.6 6.4 0.00 0.00 0.00 57 1013.2
20260506043345 17 200 0.0 4.8 0.00 0.00 0.00 56 1013.2
20260506042614 17 200 0.0 1.6 0.00 0.00 0.00 56 1013.4
20260506042113 18 200 0.0 1.6 0.00 0.00 0.00 58 1013.4
20260506041614 18 200 0.0 0.0 0.00 0.00 0.00 57 1013.5
20260506041113 18 200 0.0 0.0 0.00 0.00 0.00 58 1013.4
20260506040614 18 200 0.0 0.0 0.00 0.00 0.00 58 1013.4
20260506040113 18 200 0.0 0.0 0.00 0.00 0.00 58 1013.5
20260506035842 18 200 0.0 0.0 0.00 0.00 0.00 58 1013.5
20260506035112 18 200 0.0 3.2 0.00 0.00 0.00 57 1013.6
20260506034610 18 200 0.0 3.2 0.00 0.00 0.00 57 1013.5
20260506034109 18 200 0.0 0.0 0.00 0.00 0.00 57 1013.6
20260506033610 18 200 0.0 3.2 0.00 0.00 0.00 57 1013.6
20260506033109 18 200 0.0 3.2 0.00 0.00 0.00 57 1013.5
20260506032608 18 200 0.0 0.0 0.00 0.00 0.00 57 1013.5
20260506032339 18 200 0.0 1.6 0.00 0.00 0.00 56 1013.5
20260506031839 18 200 0.0 1.6 0.00 0.00 0.00 56 1013.5
20260506031108 18 200 0.0 1.6 0.00 0.00 0.00 56 1013.5
20260506030605 18 200 0.0 0.0 0.00 0.00 0.00 56 1013.5
20260506030338 18 200 0.0 0.0 0.00 0.00 0.00 56 1013.4
20260506025835 18 200 0.0 0.0 0.00 0.00 0.00 56 1013.4
20260506025106 19 200 0.0 0.0 0.00 0.00 0.00 55 1013.5
20260506024838 19 200 0.0 0.0 0.00 0.00 0.00 55 1013.5
20260506024106 19 200 0.0 1.6 0.00 0.00 0.00 55 1013.5
20260506023604 18 200 0.0 1.6 0.00 0.00 0.00 55 1013.5
20260506023102 18 200 1.6 4.8 0.00 0.00 0.00 56 1013.4
20260506022831 18 200 1.6 4.8 0.00 0.00 0.00 56 1013.5
20260506022454 19 200 1.6 4.8 0.00 0.00 0.00 55 1013.5
20260506022342 19 200 1.6 4.8 0.00 0.00 0.00 55 1013.4
20260506021103 19 200 3.2 4.8 0.00 0.00 0.00 55 1013.4
20260506020834 19 200 3.2 4.8 0.00 0.00 0.00 54 1013.5
20260506020334 20 200 3.2 4.8 0.00 0.00 0.00 54 1013.5
20260506015601 20 200 1.6 4.8 0.00 0.00 0.00 53 1013.5
20260506015101 20 200 1.6 4.8 0.00 0.00 0.00 52 1013.5
20260506014830 20 200 1.6 4.8 0.00 0.00 0.00 52 1013.4
20260506014100 20 200 1.6 4.8 0.00 0.00 0.00 52 1013.4
20260506013604 21 200 1.6 4.8 0.00 0.00 0.00 50 1013.3
20260506013559 20 200 1.6 4.8 0.00 0.00 0.00 50 1013.4
20260506012832 21 200 1.6 4.8 0.00 0.00 0.00 50 1013.3
20260506012101 21 200 1.6 4.8 0.00 0.00 0.00 50 1013.2
20260506011558 21 200 1.6 4.8 0.00 0.00 0.00 50 1013.1
20260506011058 21 200 1.6 4.8 0.00 0.00 0.00 48 1012.9
20260506010554 21 200 0.0 4.8 0.00 0.00 0.00 47 1012.9
20260506010055 21 200 0.0 6.4 0.00 0.00 0.00 48 1012.9
20260506005556 21 200 0.0 6.4 0.00 0.00 0.00 47 1012.8
20260506005050 21 200 0.0 6.4 0.00 0.00 0.00 47 1012.7
20260506004816 21 200 0.0 6.4 0.00 0.00 0.00 47 1012.7
20260506004321 21 200 0.0 0.0 0.00 0.00 0.00 47 1012.6
20260506004042 21 200 0.0 3.2 0.00 0.00 0.00 48 1012.7
20260506003042 22 200 0.0 0.0 0.00 0.00 0.00 47 1012.7
20260506002811 22 200 0.0 0.0 0.00 0.00 0.00 46 1012.7
20260506002041 22 200 0.0 0.0 0.00 0.00 0.00 47 1012.6
20260506001812 22 200 0.0 0.0 0.00 0.00 0.00 47 1012.6
20260506001038 22 200 0.0 0.0 0.00 0.00 0.00 47 1012.5